Location: Glendale
(37.4556°N, 88.6714°W)
Time: 05:56:10
(UTC+00:00)

CZ-4C R/B - Pass Details

Date: 08 December 2019
Orbit: 646 x 1356 km, 63.4° (Epoch: 24 January)

Event Time Altitude Azimuth Distance (km) Brightness Sun altitude
Exits shadow 11:27:52 18° 318° (NW) 2,560 4.2 -17.1°
Maximum altitude 11:33:41 63° 243° (WSW) 1,419 3.1 -16.0°
Drops below altitude 10° 11:41:56 10° 165° (SSE) 3,389 5.8 -14.4°
Sets 11:44:54 0° 162° (SSE) 4,368 6.4 -13.9°
